This demonstration page uses our WeatherBlox Daily Observations layout. Learn more.

Left ArrowRight Arrow

39.01783, -85.05884

Hourly Observations for October 7, 2019

Temp ( °F °C ) Dew Point ( °F °C ) Humidity (%) Winds ( mph kmh ) Pressure ( in mb ) Visibility ( mi km ) Precip ( " mm )
12:25 am 00:25 Cloudy with Light Rain 59 15 52 11.1 78 78 NNE 8 13 30.14 1021 9 14 0.01 0.25
12:52 am 00:52 Cloudy with Light Rain 57 13.9 53 11.7 87 87 Calm 30.14 1021 6 10 0.01 0.25
1:12 am 01:12 Cloudy 58 14.4 53 11.7 84 84 N 3 6 30.15 1021 10 16 0.01 0.25
1:52 am 01:52 Cloudy with Light Rain 57 13.9 53 11.7 87 87 Calm 30.13 1020 5 8 0.03 0.76
2:52 am 02:52 Cloudy with Light Rain 57 13.9 53 11.7 87 87 E 3 6 30.13 1020 9 14 0.05 1.27
3:52 am 03:52 Cloudy with Light Rain 57 13.9 54 12.2 90 90 Calm 30.13 1020 9 14 0.03 0.76
4:52 am 04:52 Cloudy 57 13.9 52 11.1 83 83 ESE 3 6 30.12 1020 10 16 0.01 0.25
5:52 am 05:52 Cloudy with Light Rain 57 13.9 53 11.7 87 87 Calm 30.15 1021 9 14 0.03 0.76
6:52 am 06:52 Cloudy 56 13.3 52 11.1 87 87 SE 6 9 30.15 1021 10 16 0.01 0.25
7:52 am 07:52 Cloudy 56 13.3 53 11.7 90 90 Calm 30.15 1021 10 16 0.00 0.00
8:52 am 08:52 Cloudy with Light Rain 56 13.3 53 11.7 90 90 W 3 6 30.17 1022 9 14 0.00 0.00
9:52 am 09:52 Cloudy with Light Rain 57 13.9 54 12.2 90 90 S 5 7 30.19 1022 8 13 0.01 0.25
10:08 am 10:08 Cloudy with Light Rain 57 13.9 54 12.2 90 90 SSW 5 7 30.20 1023 9 14 0.00 0.00
10:52 am 10:52 Cloudy 57 13.9 53 11.7 87 87 S 5 7 30.19 1023 9 14 0.00 0.00
11:52 am 11:52 Cloudy 57 13.9 53 11.7 87 87 S 3 6 30.19 1022 10 16 0.00 0.00
12:52 pm 12:52 Cloudy 59 15 53 11.7 81 81 Calm 30.20 1023 10 16 0.00 0.00
1:52 pm 13:52 Cloudy 59 15 53 11.7 81 81 NW 5 7 30.18 1022 10 16 0.00 0.00
2:52 pm 14:52 Cloudy 61 16.1 53 11.7 75 75 VRB 5 7 30.18 1022 10 16 0.00 0.00
3:52 pm 15:52 Mostly Cloudy 62 16.7 52 11.1 70 70 NNW 3 6 30.16 1022 10 16 0.00 0.00
4:52 pm 16:52 Mostly Cloudy 65 18.3 48 8.9 54 54 N 7 11 30.16 1021 10 16 0.00 0.00
5:52 pm 17:52 Mostly Cloudy 64 17.8 48 8.9 56 56 N 3 6 30.17 1022 10 16 0.00 0.00
7:52 pm 19:52 Mostly Cloudy 59 15 49 9.4 69 69 S 3 6 30.18 1022 10 16 0.00 0.00
8:52 pm 20:52 Partly Cloudy 56 13.3 50 10 81 81 S 3 6 30.19 1022 10 16 0.00 0.00
9:52 pm 21:52 Mostly Clear 54 12.2 50 10 87 87 S 5 7 30.21 1023 10 16 0.00 0.00
10:52 pm 22:52 Clear 54 12.2 50 10 87 87 Calm 30.22 1023 9 14 0.00 0.00
11:52 pm 23:52 Clear 51 10.6 49 9.4 92 92 Calm 30.22 1024 7 11 0.00 0.00

Powered by AerisWeather